Wind_Speed
49 51 52 54 56 57 59 60 61 62 63 64 64 64 63 61 59 58 58 59 61 62 63 66 69 71 73 78 82 83 83 83 82 82 79 75 74 74 74 73 72 71 69 66 64 64 63 62 60 60 60 59 56 52 51 50 48 47 48 47 45 42 40 37 36 35 32 33 33 31 29 28 28 27 27 27 25 25 24 22 21 19 18 17 16 15 14 13
51 52 54 56 58 60 61 63 64 65 66 67 67 66 64 63 61 59 58 59 61 62 63 65 68 70 72 75 79 83 84 84 85 83 79 76 75 75 74 74 74 73 72 68 66 65 65 64 63 62 62 62 59 56 53 53 51 49 49 48 47 43 40 38 37 36 36 38 38 36 32 31 31 29 28 28 27 27 26 24 23 21 20 19 18 17 16 15
52 54 56 58 60 62 63 65 66 68 69 69 69 67 65 63 62 61 60 60 61 62 63 65 67 69 72 73 76 80 84 86 86 84 79 78 77 76 75 75 75 75 74 71 69 68 66 65 65 65 64 63 62 60 57 56 55 53 51 51 48 44 41 40 39 38 39 40 42 42 37 36 36 31 30 30 30 29 27 26 24 23 22 21 20 19 18 17
54 56 57 60 61 63 65 67 69 71 72 71 70 68 66 64 63 62 61 61 61 62 63 64 66 68 71 73 75 78 82 86 87 84 81 80 79 78 76 75 76 77 76 74 72 70 68 66 66 66 66 65 63 62 61 59 58 57 56 53 49 45 44 42 40 38 39 40 43 47 42 39 40 35 33 34 32 31 30 29 27 25 24 22 21 20 20 19
55 57 59 61 63 65 68 70 72 73 74 73 72 70 67 64 63 62 62 62 62 62 62 63 65 67 70 72 74 76 79 85 88 85 82 81 81 80 78 76 76 77 77 76 74 73 70 68 67 68 68 67 66 65 65 63 60 59 58 56 51 47 47 46 43 39 38 40 43 48 44 40 42 38 36 37 34 34 33 33 30 27 24 23 22 22 21 20
57 59 61 63 65 68 70 73 75 75 75 75 73 71 68 66 63 63 63 63 64 63 62 63 64 66 69 71 73 76 78 84 89 87 83 83 83 81 79 78 77 77 77 77 76 75 72 70 69 69 69 68 68 67 66 65 63 62 60 58 54 51 50 47 47 44 40 40 40 44 44 42 43 40 39 38 35 37 37 34 30 26 26 25 24 23 22 21
58 60 62 65 67 70 73 75 76 76 76 75 73 71 69 66 64 64 64 64 65 64 64 63 63 65 68 70 72 75 79 82 86 87 85 84 83 82 81 79 78 78 77 77 77 76 74 73 72 70 70 70 69 68 67 66 66 65 62 60 57 54 52 49 49 48 44 43 41 41 44 44 44 41 40 39 37 40 38 35 31 27 29 28 25 24 23 22
59 61 64 67 70 72 75 76 76 76 75 74 71 69 66 64 64 64 65 66 66 66 65 64 63 64 67 69 71 75 79 77 78 84 86 85 83 82 81 79 79 78 77 77 77 78 76 74 74 72 71 70 69 68 68 68 68 67 64 62 60 57 55 52 50 50 49 49 45 42 44 45 43 41 41 40 39 42 39 37 34 31 32 30 27 26 24 23
60 63 66 69 72 74 76 76 76 74 71 68 65 62 61 60 61 62 64 65 67 67 66 66 65 65 67 69 71 75 75 72 72 79 85 85 84 82 81 80 80 80 78 78 78 78 78 76 75 74 72 70 69 69 69 70 69 68 66 64 63 61 58 55 53 54 53 53 49 46 46 46 44 42 43 42 41 43 40 37 37 34 33 33 30 28 26 25
61 64 67 70 73 74 74 74 72 68 63 59 56 54 53 54 55 57 60 62 64 66 66 67 66 66 67 68 72 73 70 69 71 77 82 84 85 83 81 80 81 81 80 79 78 78 79 78 76 75 75 74 72 72 71 72 70 68 67 66 65 64 61 58 58 58 57 54 52 49 49 48 46 45 46 43 41 43 41 39 38 37 35 34 33 31 29 27
62 65 68 71 72 72 72 69 65 58 52 48 46 44 43 43 45 47 50 53 56 59 63 65 66 67 68 70 72 70 65 66 71 75 79 82 84 84 82 81 81 81 81 80 79 78 78 78 78 77 77 78 76 74 73 72 71 70 69 67 67 67 64 62 61 62 60 57 55 53 51 51 49 49 47 44 42 43 43 40 39 39 37 36 36 34 32 30
63 66 69 70 70 69 66 61 54 46 40 37 35 34 33 33 35 36 38 41 43 47 53 58 62 65 69 72 70 65 62 65 70 74 76 78 82 83 83 81 80 81 81 80 80 79 78 78 80 79 78 79 77 76 75 72 71 71 70 69 69 68 67 65 64 64 63 60 57 57 57 55 53 52 49 45 43 45 45 41 40 40 39 38 38 36 35 33
64 66 68 68 67 64 59 51 42 35 31 29 27 26 26 28 28 28 28 30 33 37 41 48 55 60 67 71 66 62 63 65 71 73 74 75 78 81 82 81 81 81 80 80 80 80 79 78 79 79 79 78 77 78 77 74 73 72 71 71 70 70 69 67 66 66 66 64 60 61 63 58 54 53 50 47 45 47 47 43 41 41 40 40 39 38 37 36
63 66 66 66 63 57 50 40 31 27 25 23 22 21 22 24 25 25 25 26 27 30 33 38 45 51 62 68 64 64 66 66 70 71 72 74 75 78 81 81 81 81 81 80 80 79 79 78 78 78 79 78 77 78 78 76 74 72 72 72 71 71 69 66 66 68 68 66 64 64 66 60 56 55 52 50 48 49 50 46 43 43 42 42 41 39 38 37
63 64 64 62 57 49 40 30 24 22 21 20 20 20 21 23 24 25 24 25 25 26 29 33 37 43 55 64 64 66 68 68 69 68 71 74 74 75 77 79 80 80 80 80 80 79 79 79 77 76 78 79 78 77 77 77 76 74 74 74 73 73 69 65 66 69 69 68 66 67 68 63 59 57 55 53 52 52 53 50 47 46 45 44 42 41 39 38
62 63 61 57 50 42 32 22 19 19 19 20 20 20 20 21 23 23 23 23 24 24 25 29 31 36 48 58 61 63 66 68 67 66 70 72 72 72 73 76 76 77 79 79 80 79 79 79 78 77 76 78 80 79 78 78 78 76 76 76 75 75 72 67 65 67 68 69 68 69 70 67 62 60 58 57 55 54 55 53 50 48 46 45 44 42 41 39
61 61 58 53 45 36 26 19 18 19 19 19 19 19 19 19 19 20 19 20 22 23 23 26 27 32 41 51 56 59 61 64 66 66 68 70 70 69 69 72 73 74 76 77 79 80 80 79 79 78 77 77 79 80 80 79 80 80 79 79 77 76 75 71 66 65 66 68 70 71 72 70 66 63 62 60 58 58 59 57 53 50 48 46 45 43 42 41
60 59 56 49 40 31 22 19 19 19 20 19 18 18 18 18 18 18 17 17 20 22 24 24 25 28 33 41 49 54 57 60 61 65 67 68 68 67 66 66 67 69 71 72 73 77 80 80 79 79 79 78 78 80 83 81 79 80 81 81 80 78 77 74 70 66 65 67 69 71 74 73 69 66 64 63 62 61 61 59 55 52 50 48 47 46 45 44
59 57 53 45 36 27 21 20 20 21 20 20 19 19 18 18 18 17 17 17 18 21 24 23 23 26 28 33 41 47 54 57 54 58 65 66 64 64 65 63 59 61 66 68 68 71 76 79 80 81 80 80 78 78 81 79 77 77 78 79 79 78 78 76 74 70 67 68 69 70 73 74 72 69 66 65 64 63 63 60 56 54 52 51 50 48 48 47
57 55 50 42 33 24 21 21 22 21 20 20 20 20 19 18 17 17 18 18 18 19 22 22 23 26 26 30 37 41 48 54 53 55 60 61 58 58 62 64 59 56 60 64 64 66 72 78 80 81 80 78 77 76 75 75 75 75 76 77 77 77 78 77 75 73 71 71 70 69 69 71 72 71 68 67 66 65 66 63 58 55 53 52 52 51 50 50
56 53 48 40 31 23 20 21 21 20 19 20 20 19 19 18 18 19 19 18 19 20 20 21 23 24 25 28 34 38 41 47 52 54 54 53 54 57 58 61 61 58 57 59 60 61 66 75 79 78 77 75 74 74 73 72 73 74 76 77 77 77 77 76 75 75 75 74 74 72 70 69 70 69 68 69 69 68 67 66 60 55 54 54 54 54 53 52
54 50 45 38 30 24 21 20 20 20 19 19 18 19 19 19 20 21 20 18 19 21 20 20 21 22 24 27 31 37 39 42 46 49 51 49 51 54 55 57 60 59 57 55 56 58 62 71 76 75 74 74 73 73 73 73 73 73 74 76 78 78 77 76 76 75 76 77 77 75 75 74 72 70 68 68 70 70 68 66 63 58 56 56 56 57 56 54
52 48 43 35 28 24 21 20 20 20 19 18 18 19 19 19 21 22 23 21 19 20 20 20 19 20 22 26 30 35 39 41 42 42 47 51 51 51 49 53 57 57 58 55 50 52 57 62 69 72 72 73 73 73 74 75 75 74 74 75 76 78 77 78 77 75 76 78 78 77 77 78 76 74 71 68 67 68 68 66 65 63 60 59 59 59 59 57
51 47 41 34 27 23 20 18 18 19 19 19 19 20 20 21 23 23 24 23 18 17 19 19 18 18 19 23 28 33 38 41 41 38 42 50 52 50 46 46 53 57 58 56 47 44 48 51 59 67 70 72 73 74 74 75 76 76 76 75 75 76 76 76 76 75 76 77 78 78 79 80 80 79 77 72 68 67 67 67 67 66 64 62 61 61 61 59
49 45 39 33 26 22 19 16 17 17 18 20 20 21 22 23 24 24 25 24 19 16 17 17 17 16 18 21 25 31 37 41 42 38 39 45 50 52 48 43 49 55 57 57 50 42 41 42 49 61 69 72 72 73 74 75 76 77 77 76 74 74 74 74 73 74 75 77 79 79 81 84 83 81 80 77 74 71 68 67 67 67 66 65 64 62 61 61
47 43 38 32 26 21 18 16 16 17 19 21 22 24 25 25 25 25 26 25 19 14 13 14 14 14 16 18 21 27 35 38 40 41 39 41 46 51 51 45 45 49 54 59 57 49 41 38 42 52 63 69 71 73 73 73 75 77 76 75 73 73 74 73 72 73 76 78 79 79 81 85 85 83 82 80 79 76 72 70 68 67 67 66 65 65 63 62
45 42 37 32 26 21 18 16 18 19 21 24 25 27 29 28 28 27 27 24 17 12 10 10 10 11 14 15 17 22 31 35 38 42 42 41 42 48 53 48 43 45 50 58 64 59 47 41 42 46 53 61 67 73 74 73 75 76 75 74 73 73 73 73 73 74 76 77 78 78 80 84 85 84 83 81 80 78 76 75 71 68 67 67 68 68 66 64
44 41 36 32 27 22 19 18 19 22 23 25 27 29 31 30 28 27 27 23 17 13 11 9 8 10 13 14 15 18 25 32 36 40 43 44 43 45 51 49 41 42 48 55 63 63 53 46 44 45 50 54 60 67 71 72 74 75 73 73 74 74 73 73 73 75 76 77 78 78 78 82 85 84 82 81 80 80 78 77 74 72 70 69 70 69 67 65
42 40 35 32 28 25 23 21 20 22 25 27 28 30 32 30 27 27 25 21 17 14 13 12 10 10 11 12 15 16 19 25 32 37 41 45 46 46 49 49 43 41 45 50 55 59 60 56 50 48 50 51 52 57 63 69 73 74 73 73 73 74 74 72 73 74 75 77 79 79 78 80 84 83 80 80 79 78 77 76 75 73 71 71 71 70 68 66
41 39 34 31 28 25 25 24 23 24 26 28 30 32 31 28 26 26 25 21 17 15 13 12 11 10 10 11 13 16 17 20 26 34 38 41 45 47 49 51 49 44 45 48 50 55 62 63 58 54 50 48 49 51 54 61 69 72 73 74 73 73 73 72 72 72 74 76 78 79 78 79 84 83 79 77 76 74 74 74 73 71 70 70 71 70 68 65
40 39 35 31 28 25 25 25 24 24 26 27 30 31 30 27 26 26 24 20 16 13 11 10 10 9 8 8 11 14 15 17 21 28 35 38 40 44 48 51 52 48 46 49 48 50 57 61 61 58 53 48 47 48 49 53 59 66 70 71 72 72 70 70 69 66 69 76 79 79 76 77 84 85 78 75 74 73 72 72 70 68 67 68 68 68 66 64
39 39 36 32 29 26 25 25 24 24 25 26 28 29 28 27 27 26 23 18 14 12 11 10 11 10 6 5 9 11 10 12 17 23 30 35 39 41 44 48 52 51 49 48 45 45 52 57 58 57 55 50 46 46 49 50 51 58 65 68 68 68 68 69 69 66 67 75 80 79 75 78 85 85 79 75 73 72 71 71 70 67 65 65 65 65 64 62
38 38 36 33 30 27 26 25 24 23 24 25 26 27 28 29 29 27 22 17 14 13 14 13 12 12 10 8 7 10 10 9 12 17 23 30 37 41 42 44 49 52 51 48 46 47 49 53 57 59 59 55 51 48 48 50 50 51 59 65 67 68 70 73 76 74 74 77 80 78 73 78 87 85 79 76 72 72 72 71 69 67 65 64 63 63 62 61
37 37 35 34 32 29 26 25 23 22 22 23 24 25 28 29 29 26 22 17 15 14 15 16 15 14 14 13 10 10 11 9 10 15 19 23 30 38 41 43 46 50 52 49 48 49 50 52 56 60 60 56 54 50 45 45 48 50 52 58 65 69 72 76 79 79 80 81 81 77 74 82 88 83 78 76 75 75 74 71 70 69 67 65 63 63 62 60
37 37 35 34 33 31 28 25 23 22 22 22 23 25 27 29 28 26 23 19 15 15 15 16 17 16 15 15 15 13 10 9 11 14 17 19 24 30 37 41 43 45 49 52 51 50 51 51 51 55 58 57 55 54 48 44 46 48 49 52 59 63 67 72 77 78 78 79 80 78 79 86 87 82 80 81 79 77 74 72 73 72 70 66 64 64 62 60
37 36 35 35 34 32 29 27 24 23 22 22 23 24 26 28 28 27 24 19 16 16 16 16 17 17 16 15 17 17 13 11 11 12 15 19 22 25 29 36 41 42 46 50 51 51 53 51 48 50 56 57 56 56 53 50 47 45 48 52 52 54 58 63 69 73 74 76 79 80 81 86 86 85 85 82 80 79 76 75 75 74 72 69 67 65 63 62
37 36 35 35 34 32 31 28 26 24 23 23 23 24 24 25 26 26 24 20 17 17 17 16 16 16 16 15 17 17 17 16 14 11 13 17 21 22 23 29 36 41 43 45 48 51 53 52 49 49 53 54 55 58 58 56 53 48 48 47 45 48 54 55 58 64 69 75 81 82 84 87 88 88 86 82 81 82 79 77 76 76 75 73 70 68 66 65
35 35 35 34 33 32 31 30 27 25 24 23 23 23 24 24 25 25 24 21 18 17 17 17 16 16 16 16 17 18 18 19 19 15 13 14 16 17 19 22 28 35 40 42 45 49 53 55 52 50 51 50 51 56 60 61 59 56 52 47 44 49 54 54 55 58 62 68 77 83 86 88 90 90 88 84 83 82 80 79 79 79 78 76 74 72 70 68
34 34 34 34 33 32 31 30 28 26 25 24 23 21 22 24 25 24 23 22 20 18 17 17 18 17 16 16 18 19 19 20 20 20 17 13 13 14 16 18 21 28 35 40 42 44 50 57 56 51 52 52 50 51 56 60 61 58 55 52 51 50 50 53 55 57 58 62 68 75 81 87 91 90 88 86 84 82 82 81 80 79 79 80 79 76 74 72
32 33 33 34 34 32 32 31 29 27 25 24 23 21 21 22 23 23 22 22 21 19 17 17 18 17 16 17 18 19 21 21 21 23 21 17 14 15 16 17 19 23 28 34 40 42 45 53 57 55 53 53 54 53 51 53 58 61 60 57 54 50 48 51 54 55 56 59 61 66 74 84 90 88 87 86 85 85 85 84 83 81 80 81 81 80 78 75
31 32 32 33 34 33 32 31 30 28 26 24 23 22 21 21 22 22 22 21 20 19 18 16 17 17 17 18 19 21 22 22 22 24 25 23 19 17 16 17 19 23 26 29 34 40 44 48 54 57 58 56 55 54 51 50 52 57 62 63 60 57 53 55 58 56 54 57 60 62 71 82 87 86 86 86 86 86 86 86 86 84 83 82 82 82 80 78
30 31 31 32 33 33 32 31 30 29 27 25 23 23 22 21 21 21 21 21 19 19 18 17 16 16 17 18 19 21 23 23 23 23 25 26 24 21 20 20 19 23 28 29 31 35 41 45 50 55 59 59 56 53 54 53 49 48 54 60 63 64 62 62 64 60 57 58 58 59 67 77 81 80 81 83 85 86 86 85 85 85 84 84 84 83 82 80
29 30 31 31 32 33 32 31 30 29 28 26 24 24 23 22 22 21 21 21 20 19 18 17 16 16 16 18 18 20 23 24 24 23 24 27 27 25 24 23 21 22 26 30 33 35 38 41 46 52 56 58 59 58 58 57 53 51 52 53 56 60 62 64 65 62 62 61 59 60 64 68 71 73 73 76 80 83 82 83 83 82 83 83 83 83 82 81
29 29 30 30 31 32 32 31 31 30 29 27 24 24 25 24 23 22 21 21 21 19 18 18 17 16 16 17 18 19 22 24 24 23 24 26 28 29 28 27 26 24 25 27 31 36 39 40 42 49 54 57 60 63 63 61 59 59 57 54 53 52 54 59 62 63 67 66 62 63 64 61 61 64 65 66 72 76 76 76 75 75 78 81 82 82 82 81
29 29 29 30 30 31 31 32 31 31 30 27 25 24 25 25 25 23 22 22 22 20 18 17 17 17 16 16 17 18 21 24 24 23 22 23 26 30 31 31 31 29 27 26 27 32 39 43 42 44 50 55 58 62 65 65 65 64 61 60 57 52 50 53 55 59 66 69 66 65 64 58 54 57 61 61 63 67 68 69 69 68 70 75 78 79 80 80
29 29 30 30 30 30 31 31 32 32 31 29 26 24 25 25 25 24 22 22 23 22 19 18 18 18 18 17 17 17 19 22 24 24 22 22 24 28 32 35 36 34 32 30 28 29 34 41 45 45 47 52 55 58 62 65 69 69 65 63 62 57 53 53 54 55 58 62 67 69 65 59 54 53 56 56 56 59 60 62 64 62 62 66 69 71 74 75
28 28 29 30 30 30 30 30 31 32 32 31 28 26 25 24 24 24 23 22 22 22 20 18 18 19 19 19 18 18 18 19 22 23 23 24 24 27 32 35 37 38 38 37 36 34 34 37 42 44 47 50 51 53 58 62 68 71 70 68 67 64 59 57 60 59 54 56 64 66 65 65 61 55 54 54 53 54 55 57 61 61 60 61 63 66 69 72
28 27 28 30 30 30 30 30 30 31 32 32 30 28 27 24 24 25 24 23 22 22 22 19 18 20 21 20 20 20 19 19 19 20 23 26 27 29 32 33 36 38 40 42 42 40 39 38 39 40 45 49 49 50 52 56 62 68 73 73 71 68 64 61 62 61 58 59 61 60 63 69 67 61 58 56 56 56 56 57 60 62 61 61 63 64 66 69
29 28 28 29 30 30 30 30 31 31 32 32 30 30 29 27 26 26 25 24 22 21 23 21 20 22 23 22 22 21 21 22 21 19 20 23 27 31 33 32 34 37 40 43 44 43 43 41 39 41 45 49 50 50 50 52 56 62 69 74 75 73 69 66 65 64 63 64 61 59 65 70 68 65 62 59 58 59 60 60 62 64 65 64 65 65 65 67
29 30 29 28 30 30 30 30 30 30 31 32 31 31 30 30 29 27 25 25 24 22 23 23 22 23 24 24 24 23 24 26 25 21 20 23 25 28 32 34 35 36 38 41 42 43 45 42 41 43 48 49 50 50 50 51 53 57 63 68 74 77 76 73 70 68 67 68 64 61 66 71 69 65 63 60 58 58 60 61 63 65 66 65 65 66 69 70
30 30 29 28 29 31 30 30 30 30 31 32 31 31 31 30 31 30 26 25 25 23 23 24 23 23 24 25 25 25 28 29 27 24 24 26 26 26 30 34 36 38 38 38 40 43 44 44 44 47 51 51 51 50 51 51 52 55 59 62 66 72 77 78 77 74 71 71 69 67 68 69 67 65 65 63 61 59 58 58 59 62 64 65 64 64 69 73
33 31 30 29 28 30 31 31 31 30 31 32 32 32 32 31 32 32 29 26 25 25 25 26 26 25 25 24 26 29 31 31 28 27 28 28 28 27 28 30 34 39 40 39 40 42 44 46 47 48 51 52 51 50 51 52 54 58 58 58 60 64 68 75 80 79 76 73 73 73 70 66 65 66 67 66 65 64 60 58 58 61 62 63 63 63 66 71
Wind_Direction
299 300 300 301 301 301 301 300 299 297 296 295 293 290 288 284 279 273 267 262 258 253 249 245 243 241 239 238 236 235 233 233 232 232 231 231 231 231 230 229 228 228 227 225 224 224 225 224 224 223 223 221 219 220 223 226 226 227 229 230 228 224 225 225 224 222 224 230 228 225 229 230 229 230 232 232 231 232 234 234 232 230 227 223 219 216 212 206
299 300 301 301 301 301 301 300 299 297 296 294 292 290 287 283 279 274 267 262 258 254 250 246 243 241 239 238 236 235 234 232 231 231 230 231 232 231 231 230 228 228 227 226 225 224 224 224 224 224 223 221 219 218 220 223 223 225 229 230 230 226 225 225 225 223 223 231 233 229 231 234 232 231 233 234 234 233 233 234 234 232 230 226 223 221 218 213
300 301 302 302 302 301 301 300 298 297 295 293 291 288 285 282 278 273 268 262 257 254 251 247 243 241 239 238 236 235 234 232 231 229 229 230 231 231 231 231 229 228 227 227 226 225 224 224 225 225 224 223 220 218 219 221 221 222 225 228 229 227 226 225 225 224 223 229 235 233 231 235 236 233 235 236 235 234 233 234 233 232 231 228 226 224 223 219
301 302 302 302 302 302 301 300 298 296 294 292 290 286 283 279 275 271 267 262 257 253 251 247 244 241 239 237 236 235 233 233 230 228 228 229 230 230 231 231 230 228 227 227 227 225 225 224 225 225 226 225 223 220 219 220 219 219 221 224 226 226 226 225 225 226 226 228 234 235 231 233 237 235 236 237 235 235 234 232 231 230 230 229 228 226 225 224
302 303 303 303 303 302 301 299 298 296 294 291 288 284 281 276 272 268 265 261 257 253 250 247 245 242 239 237 236 234 233 232 230 227 226 227 228 229 230 230 231 229 227 227 227 226 225 225 225 225 226 226 225 223 220 220 220 219 219 221 222 223 225 225 225 225 225 228 233 237 234 232 237 235 234 236 235 235 234 232 229 229 231 230 230 228 227 225
304 304 304 304 303 302 301 299 298 295 293 290 286 283 279 274 269 265 261 259 257 253 249 246 244 242 240 237 235 234 233 231 229 227 226 226 227 228 229 230 230 230 228 227 227 227 226 225 225 225 225 226 226 225 222 221 221 220 218 219 219 221 224 223 225 224 222 228 232 236 234 232 234 233 232 234 234 234 234 233 229 229 232 230 230 229 228 227
306 306 306 305 304 303 302 300 298 295 292 289 285 282 277 272 267 262 258 255 254 252 250 246 243 242 241 238 236 234 232 231 229 228 227 226 226 226 227 229 230 230 229 229 227 227 226 226 226 225 226 226 227 226 225 224 223 221 219 219 218 218 222 222 224 226 224 228 230 231 232 231 231 231 231 231 233 234 234 233 229 228 231 229 228 229 228 229
308 308 308 307 306 304 303 300 298 294 291 288 284 280 276 271 265 260 256 252 250 249 248 246 243 240 240 239 237 234 232 230 229 229 227 227 226 225 226 227 229 230 229 229 229 227 226 225 226 226 226 226 227 227 227 227 225 223 220 219 218 217 219 220 222 226 226 229 230 229 231 232 231 229 231 229 231 235 232 231 230 227 231 229 227 229 228 228
310 310 310 309 307 306 304 301 298 294 291 287 283 279 273 268 264 259 255 252 249 246 245 244 242 240 238 238 238 235 231 228 229 229 227 227 226 225 224 224 226 229 229 229 229 228 226 225 225 226 226 226 227 227 228 229 227 224 223 222 220 218 218 218 220 224 224 227 229 230 230 231 231 228 229 229 229 234 232 229 231 229 230 230 228 227 228 228
313 312 312 310 309 307 305 302 298 295 291 287 282 276 271 267 264 261 257 254 250 246 243 242 241 239 238 237 238 235 229 227 228 228 228 227 226 225 224 223 224 227 228 228 229 229 228 226 225 225 226 226 226 226 227 228 227 226 226 224 222 220 219 217 219 223 223 224 226 229 229 228 228 227 227 227 227 233 233 228 229 229 229 231 230 227 227 228
315 315 314 313 311 309 306 303 300 296 291 287 281 275 271 269 268 264 260 257 253 249 245 241 238 238 237 235 236 234 228 228 228 227 228 227 226 225 224 223 223 224 227 228 228 229 229 228 226 224 224 225 225 226 226 227 227 227 228 226 224 222 220 218 218 221 222 223 223 226 229 227 226 226 225 225 225 230 232 228 227 229 228 229 231 229 228 228
318 317 316 316 314 312 309 305 302 297 292 288 280 274 272 273 272 268 262 259 257 254 249 243 238 235 235 235 235 233 230 229 228 227 227 227 227 225 224 223 222 223 224 227 228 228 229 229 228 226 224 225 225 226 226 227 228 228 227 228 227 224 221 219 218 220 222 222 222 225 228 225 223 225 225 224 225 230 232 229 227 228 229 229 230 231 230 229
320 320 320 320 318 315 312 308 303 299 294 286 277 274 277 278 274 268 264 263 262 261 255 247 239 234 233 233 232 231 229 228 228 227 225 226 227 225 224 223 222 222 222 224 227 228 228 229 230 228 226 225 225 226 227 226 228 228 228 229 229 227 222 219 219 221 222 222 223 225 228 225 223 225 226 224 225 230 232 230 228 228 229 230 230 231 231 231
323 323 324 324 322 319 315 310 304 299 294 285 278 279 284 282 276 273 272 270 268 267 261 252 243 235 231 230 228 227 227 226 227 226 225 225 226 225 224 223 222 222 221 222 224 227 228 229 230 230 229 227 225 226 227 227 228 228 229 229 230 228 223 220 222 223 223 223 223 227 229 227 225 226 227 225 224 229 233 230 228 228 228 230 230 230 231 232
327 328 329 329 327 322 318 313 305 301 295 288 287 289 289 285 281 280 279 275 273 269 264 258 251 241 232 227 224 224 225 225 226 225 225 226 225 225 225 224 223 222 222 221 222 224 227 228 229 230 231 230 227 225 225 227 228 228 229 229 229 228 224 221 223 225 225 224 223 227 231 228 225 227 228 226 224 228 232 230 227 227 227 228 230 230 230 232
331 333 335 334 330 325 321 314 307 304 297 293 294 296 297 292 286 284 282 278 275 268 264 262 259 248 234 226 223 223 224 224 224 224 225 226 226 225 225 224 223 223 223 222 221 222 224 227 228 228 230 231 230 227 225 225 226 227 229 230 230 229 227 224 223 226 227 227 226 227 231 231 226 227 229 229 225 227 231 230 227 227 227 227 229 231 231 231
336 338 339 338 334 329 324 313 305 307 307 303 300 300 300 296 289 287 286 282 276 270 265 261 259 252 237 226 222 221 222 222 222 223 224 225 225 224 224 225 224 223 223 222 221 221 222 224 226 227 228 230 231 230 228 226 225 227 229 229 230 230 230 227 225 226 228 229 229 227 230 232 229 226 228 230 229 228 230 231 228 227 228 228 228 230 232 232
340 343 344 342 338 333 325 312 305 307 312 313 309 306 302 298 292 288 288 285 277 271 266 262 258 251 238 229 224 221 221 221 221 221 222 224 225 223 222 223 224 224 223 223 223 221 221 222 224 226 226 227 229 231 231 228 225 227 230 230 231 231 231 229 228 228 228 230 231 231 231 232 232 230 228 230 231 230 229 229 229 227 227 229 229 228 231 232
344 346 348 346 342 335 325 316 310 309 312 313 314 313 306 301 294 290 290 288 281 269 263 262 257 249 239 230 226 224 222 221 221 222 221 222 224 224 223 221 222 224 223 222 223 223 222 221 222 224 226 227 228 232 233 231 230 230 231 232 233 233 233 232 231 230 230 232 233 233 233 232 232 232 230 230 231 232 232 229 227 229 228 229 231 229 229 232
347 349 350 350 345 337 325 319 316 315 317 319 318 315 307 301 295 294 297 294 288 277 268 264 255 248 242 232 225 224 224 221 221 222 221 222 224 224 224 221 220 221 221 221 222 224 224 221 221 223 226 229 229 232 234 234 235 234 232 232 233 234 234 234 235 234 232 234 235 234 235 236 235 233 232 232 231 232 235 232 226 227 230 230 231 231 231 231
350 352 353 352 348 340 327 322 323 324 326 325 322 317 311 306 299 298 303 302 296 289 280 271 259 249 246 239 228 223 223 221 220 221 221 222 225 226 225 223 221 220 218 219 221 224 226 224 221 222 226 228 230 231 232 234 235 235 235 235 234 233 234 234 236 237 235 235 236 236 237 238 238 236 233 233 233 231 233 235 230 226 229 232 233 233 232 232
352 354 355 354 349 341 331 326 327 331 333 331 327 324 319 314 308 303 304 306 302 297 290 279 267 255 248 244 233 224 221 219 217 219 218 218 223 225 226 226 223 221 218 217 221 225 228 226 222 220 223 226 228 229 230 232 233 235 236 237 236 235 235 235 236 237 237 236 236 237 237 238 239 239 236 233 234 233 233 235 234 230 227 230 234 235 234 233
354 355 357 356 351 342 335 329 328 330 333 333 331 327 322 318 316 312 308 306 306 303 295 284 273 263 252 245 237 225 219 215 213 217 217 215 217 219 223 227 224 221 218 216 221 227 230 229 223 221 221 223 226 228 229 230 231 233 234 236 237 236 237 237 237 238 239 239 238 238 238 239 239 240 239 235 233 234 234 234 234 233 230 229 232 235 236 235
355 356 358 358 355 349 344 340 338 337 337 337 334 330 324 321 321 320 315 310 308 307 300 288 278 271 259 248 239 227 220 215 211 216 218 216 215 215 218 225 224 221 217 214 217 227 232 230 225 222 220 221 224 226 228 229 230 231 232 234 236 237 238 239 239 240 241 241 240 240 239 239 239 240 239 238 235 234 234 233 233 234 233 232 232 233 236 237
356 356 358 359 359 356 354 355 352 348 349 348 344 337 331 326 324 321 317 312 307 307 307 296 283 276 268 257 246 233 225 218 213 217 219 216 215 214 216 222 223 221 217 212 212 220 226 225 224 224 221 220 222 224 226 228 230 232 232 233 235 237 238 239 240 241 242 242 241 241 241 239 238 240 240 239 238 236 234 234 233 234 235 235 235 234 236 238
356 356 357 358 360 359 358 358 357 356 355 354 351 346 338 331 326 321 318 316 310 309 311 302 289 280 273 263 252 242 232 223 218 220 220 217 217 215 215 219 221 220 216 213 214 216 216 216 220 222 222 222 222 223 225 227 230 232 232 233 235 236 238 239 241 241 242 242 242 242 242 240 238 239 239 239 240 238 237 236 235 235 236 236 237 237 236 237
357 357 356 356 357 358 356 351 350 352 353 351 350 348 343 335 327 321 319 320 319 312 304 301 293 275 266 257 251 248 238 227 222 222 220 218 219 216 216 219 221 220 216 215 217 216 213 214 217 219 222 224 224 222 223 226 229 231 232 234 235 236 238 239 241 242 243 243 243 243 243 242 240 240 239 240 240 239 239 239 237 235 236 237 238 238 238 237
357 357 355 353 352 352 352 348 343 345 346 347 346 345 342 336 329 324 321 323 324 314 300 299 294 273 266 254 242 244 238 229 225 225 223 220 221 218 215 217 219 217 216 218 220 217 214 215 215 215 219 224 225 224 223 225 228 230 231 233 235 235 237 239 240 242 243 244 244 244 244 244 242 240 240 240 240 239 240 240 239 237 236 238 239 239 239 239
357 357 354 351 349 345 344 344 341 340 340 341 341 341 340 336 332 330 326 326 325 317 308 304 303 297 287 264 242 241 240 231 224 224 226 223 223 222 217 216 217 216 216 219 221 218 216 217 218 218 220 221 224 226 225 225 227 229 230 232 234 235 236 237 239 241 242 244 244 243 245 246 243 240 240 240 240 240 240 241 241 240 239 240 241 241 241 242
357 357 354 349 347 342 336 337 337 336 337 336 336 337 337 336 335 335 333 328 320 314 312 305 302 302 295 279 263 254 246 237 226 223 225 225 224 225 222 219 220 219 216 218 219 218 217 219 221 224 223 223 225 227 228 228 227 228 230 231 232 235 236 237 238 240 242 243 243 243 244 247 245 240 239 240 240 240 241 241 241 240 241 241 242 243 242 242
357 357 355 350 347 342 335 333 333 333 334 333 333 335 335 335 334 335 336 329 317 313 315 304 292 292 295 283 269 263 254 247 236 226 225 225 223 225 226 223 223 223 219 217 217 217 218 219 220 221 221 222 226 226 227 230 229 228 230 231 232 234 235 237 237 238 241 243 243 244 245 248 247 240 237 239 240 240 241 241 241 240 240 241 241 242 242 242
358 357 356 352 348 344 337 334 332 332 333 332 333 335 336 335 331 331 332 326 316 314 311 304 290 281 285 274 254 253 257 253 244 233 227 225 223 224 226 225 224 226 224 221 219 218 218 219 219 219 216 217 223 226 225 229 232 232 231 229 231 233 233 235 236 235 239 242 242 244 245 247 245 239 238 239 239 240 241 240 241 240 239 239 240 241 241 241
359 357 356 354 350 346 341 337 335 334 333 332 333 335 337 337 333 332 330 319 308 306 302 299 291 274 271 278 255 233 234 237 238 236 231 229 228 226 226 225 223 226 226 224 222 221 220 219 219 219 217 216 219 223 224 226 229 233 233 230 230 233 233 235 236 236 240 242 243 244 245 246 244 239 239 239 238 240 242 241 241 240 239 239 239 240 240 240
360 358 357 355 352 348 343 341 339 336 334 333 332 334 338 341 340 336 332 319 303 297 296 295 291 280 274 276 264 239 229 220 215 221 225 229 231 230 229 227 225 226 226 225 223 222 223 220 218 219 219 219 220 222 224 227 229 232 234 235 235 235 236 238 239 240 242 244 244 244 244 246 244 240 241 242 241 242 242 241 243 242 240 239 238 239 239 239
359 359 357 356 354 351 346 343 341 338 335 333 332 334 339 344 345 342 337 327 308 295 294 293 289 284 278 274 267 256 237 215 209 213 216 220 227 232 231 229 228 227 226 226 225 225 226 223 219 220 221 220 221 222 223 226 230 232 234 237 238 238 239 241 242 243 245 245 245 243 244 247 245 241 244 245 244 244 242 242 245 245 243 241 240 240 239 240
358 359 357 357 356 353 349 345 342 339 336 334 333 333 338 343 347 348 345 334 316 304 299 294 290 286 280 274 269 262 248 232 224 219 218 219 221 227 231 229 229 229 228 228 227 227 229 226 221 221 223 222 220 220 223 226 229 232 234 237 240 240 241 243 243 244 245 245 245 245 246 247 245 243 245 245 245 245 243 243 245 247 246 244 242 242 241 241
357 358 357 357 357 354 351 347 343 340 337 335 336 336 338 343 347 349 349 341 324 314 307 298 294 291 284 275 271 267 257 249 245 234 225 223 221 224 230 230 231 230 230 231 230 228 230 228 222 222 224 224 223 222 224 226 228 230 233 236 239 239 239 241 244 244 244 246 246 245 246 246 245 244 243 243 246 247 246 244 245 247 248 247 244 243 243 242
356 357 357 357 357 355 353 351 347 342 337 335 338 339 338 342 345 347 349 346 335 323 313 304 298 295 290 281 276 273 265 256 252 249 241 230 225 227 229 231 234 233 231 233 233 231 231 229 224 223 224 223 224 226 227 227 227 229 232 232 234 237 236 236 241 243 244 247 247 246 246 245 245 244 243 244 245 246 247 247 247 248 249 248 246 245 244 244
354 356 356 357 357 356 353 353 352 347 340 334 335 338 337 339 342 343 346 347 342 333 320 309 303 298 291 286 281 276 271 264 257 255 252 242 230 226 224 226 231 233 231 232 233 232 233 231 226 223 225 224 222 225 227 227 226 229 233 232 231 235 238 238 241 243 245 249 249 248 248 247 246 245 247 248 245 245 247 249 249 249 250 251 250 247 246 247
351 353 355 356 357 357 355 354 354 352 345 337 333 333 335 336 338 339 342 345 344 341 331 316 309 304 295 288 283 278 273 270 263 258 254 250 243 230 224 222 220 221 225 227 230 230 232 234 230 223 224 225 222 221 224 226 226 228 233 234 233 234 237 240 243 243 245 249 251 251 250 248 246 246 249 250 248 248 250 251 251 250 250 252 252 251 250 250
348 350 352 354 355 356 355 354 354 354 350 344 337 331 330 332 333 336 339 341 342 341 338 328 313 305 298 288 282 278 274 271 269 264 256 256 255 241 232 231 223 217 216 220 227 229 231 235 234 227 224 226 224 222 224 227 227 228 233 236 237 238 239 242 245 244 244 247 249 251 252 249 247 247 249 250 249 249 251 252 253 253 252 251 252 253 253 253
344 347 350 352 353 354 355 355 353 354 352 349 342 334 331 328 326 330 335 337 337 335 335 333 321 309 300 290 283 278 274 271 270 269 262 259 257 250 245 243 231 221 219 219 222 227 229 233 235 231 227 226 225 224 225 227 226 228 234 236 237 239 240 242 245 245 246 249 249 252 253 250 247 247 249 250 250 250 252 252 253 255 255 254 253 254 255 255
340 343 346 349 351 352 354 354 353 353 353 351 345 337 335 330 323 325 329 331 333 331 330 330 324 316 304 294 287 282 277 274 271 270 267 260 255 256 258 255 241 227 223 223 221 223 227 230 233 233 230 227 226 225 227 228 226 227 231 233 234 237 238 240 244 244 245 247 247 250 253 250 247 246 249 251 251 251 252 254 254 255 256 256 256 255 256 257
337 340 342 345 348 350 351 352 352 352 352 353 348 339 336 334 328 326 324 322 326 328 329 326 320 317 312 301 294 287 282 279 275 272 270 263 256 256 260 261 254 239 231 231 228 225 225 226 230 233 232 229 227 228 229 229 229 228 227 228 231 235 237 239 242 243 244 245 245 247 252 251 248 247 248 251 252 251 252 254 255 256 256 256 257 257 256 256
334 336 338 340 344 347 349 349 349 350 351 353 350 342 338 336 333 330 323 317 318 323 327 325 316 313 313 308 301 292 284 281 278 274 272 268 262 259 259 261 260 252 244 242 239 233 228 225 227 231 232 230 228 229 230 231 231 231 229 228 231 232 232 234 237 240 241 242 243 245 248 249 247 246 247 249 251 251 253 254 255 256 257 256 257 258 257 257
332 333 334 336 339 343 345 347 347 347 348 351 350 345 341 337 333 331 327 321 317 317 321 322 315 309 306 305 304 300 291 284 281 278 276 271 264 259 258 257 258 257 253 250 249 247 238 229 227 230 231 230 230 229 230 232 233 232 230 230 232 233 232 233 235 237 239 240 240 241 244 245 244 243 244 246 248 249 251 254 254 255 257 256 256 257 258 258
330 331 331 332 334 338 341 343 344 344 344 347 349 345 343 339 332 331 331 327 321 316 315 314 311 306 301 297 299 300 297 291 286 283 278 271 264 260 258 256 256 258 258 256 255 255 250 236 230 233 232 231 233 232 231 233 235 233 231 231 232 234 236 236 237 238 238 240 240 239 241 243 241 239 240 244 246 247 248 250 252 253 254 255 255 256 256 257
328 328 329 329 330 334 337 339 341 342 340 343 345 343 342 338 331 331 332 329 325 318 313 310 305 300 298 296 296 296 295 291 289 285 279 273 267 263 261 258 257 258 259 259 257 259 257 242 232 236 235 230 232 235 234 236 237 234 232 232 232 234 236 238 239 239 240 242 241 239 239 241 240 237 237 241 243 244 245 248 249 249 251 253 254 254 255 256
325 326 327 327 327 329 333 334 337 339 338 340 342 339 339 337 331 331 332 329 328 321 313 311 301 293 295 295 293 294 294 288 284 283 282 278 272 268 265 261 259 258 260 260 258 261 261 247 235 241 241 232 232 236 236 239 240 237 235 233 233 234 235 237 239 239 241 243 243 241 239 239 239 237 235 238 242 243 243 246 248 249 249 251 254 254 253 253
322 323 324 325 324 325 329 330 333 335 334 336 338 336 336 335 331 331 330 327 327 323 314 311 304 295 292 290 291 294 291 285 282 283 283 282 280 276 271 265 261 259 259 259 258 260 261 252 242 248 249 238 234 237 238 239 242 241 239 237 236 236 236 237 238 239 241 243 244 244 242 239 237 237 236 236 239 243 243 244 247 249 249 250 253 254 253 251
319 320 321 322 322 322 325 326 328 331 331 331 333 332 332 332 329 329 329 325 323 320 314 311 308 301 294 290 291 290 283 280 282 284 282 281 283 284 279 272 266 261 259 257 256 257 260 256 249 255 257 244 237 240 241 241 245 245 241 240 240 240 240 240 240 241 242 244 245 245 245 241 236 235 237 236 237 240 242 243 245 247 248 249 250 253 255 254
316 317 318 319 319 319 321 322 324 327 328 328 329 329 329 329 326 326 327 326 321 316 312 309 306 304 300 292 286 281 279 281 283 282 280 280 281 283 282 278 271 264 260 259 257 256 258 258 255 258 261 251 240 243 246 247 250 248 242 242 244 244 245 244 243 242 243 245 246 246 246 244 238 234 235 235 235 236 239 241 244 245 247 248 249 251 254 256
Height
5698 5695 5693 5691 5689 5686 5684 5681 5679 5677 5675 5673 5670 5668 5667 5665 5665 5665 5665 5665 5665 5667 5669 5671 5673 5676 5679 5682 5686 5691 5695 5701 5706 5710 5719 5730 5733 5736 5739 5742 5747 5749 5753 5758 5761 5763 5766 5769 5773 5775 5777 5780 5783 5787 5791 5793 5796 5797 5798 5800 5803 5806 5809 5813 5816 5818 5820 5820 5821 5824 5824 5826 5827 5829 5830 5831 5832 5833 5834 5835 5836 5837 5837 5838 5838 5839 5839 5840
5692 5690 5687 5684 5682 5679 5677 5674 5672 5669 5667 5664 5662 5660 5658 5656 5656 5655 5656 5656 5656 5658 5660 5662 5664 5667 5671 5673 5677 5681 5684 5691 5695 5703 5716 5724 5725 5729 5732 5735 5739 5742 5746 5751 5755 5757 5760 5764 5766 5769 5771 5774 5778 5782 5785 5787 5791 5793 5794 5797 5800 5805 5808 5810 5813 5815 5817 5816 5817 5820 5822 5823 5824 5826 5828 5829 5830 5831 5832 5833 5834 5835 5836 5836 5837 5837 5838 5839
5686 5683 5681 5678 5675 5672 5669 5666 5663 5660 5658 5655 5653 5651 5649 5647 5646 5645 5646 5647 5648 5649 5650 5653 5655 5658 5661 5664 5668 5670 5675 5680 5686 5700 5711 5713 5716 5721 5724 5728 5732 5735 5740 5745 5748 5751 5754 5758 5761 5763 5765 5768 5772 5776 5779 5781 5784 5788 5789 5791 5796 5802 5805 5807 5808 5811 5813 5814 5813 5814 5819 5819 5820 5824 5826 5827 5828 5829 5830 5831 5832 5833 5834 5835 5835 5836 5836 5838
5680 5677 5674 5671 5668 5664 5661 5658 5654 5651 5648 5645 5643 5641 5639 5638 5636 5636 5636 5637 5639 5640 5641 5644 5646 5649 5652 5655 5658 5661 5667 5669 5677 5693 5700 5703 5708 5712 5716 5721 5724 5728 5734 5738 5741 5745 5749 5753 5755 5758 5760 5763 5768 5771 5773 5775 5778 5782 5783 5786 5793 5799 5801 5803 5805 5807 5809 5810 5809 5809 5815 5816 5816 5822 5824 5823 5825 5827 5828 5828 5829 5831 5832 5833 5834 5834 5835 5836
5673 5670 5667 5663 5660 5656 5653 5649 5645 5641 5637 5634 5632 5630 5629 5627 5627 5626 5626 5626 5628 5630 5633 5634 5637 5640 5642 5646 5649 5653 5656 5657 5670 5684 5689 5695 5699 5703 5710 5713 5715 5721 5727 5732 5735 5739 5743 5747 5749 5751 5754 5758 5761 5764 5766 5770 5773 5775 5779 5783 5790 5794 5795 5799 5801 5803 5804 5805 5805 5805 5810 5813 5813 5819 5820 5820 5823 5824 5824 5825 5827 5829 5831 5832 5832 5833 5833 5834
5667 5663 5660 5656 5652 5648 5644 5639 5635 5630 5626 5623 5620 5618 5617 5616 5616 5616 5616 5617 5618 5620 5623 5626 5629 5630 5633 5636 5638 5643 5644 5648 5665 5675 5682 5688 5689 5696 5702 5704 5708 5714 5720 5724 5728 5732 5737 5740 5742 5745 5749 5752 5755 5758 5762 5765 5767 5770 5774 5778 5784 5788 5790 5795 5796 5797 5800 5800 5801 5802 5806 5809 5810 5815 5817 5818 5820 5820 5821 5823 5826 5829 5829 5830 5830 5831 5832 5833
5660 5656 5652 5648 5644 5639 5634 5629 5623 5618 5614 5610 5607 5605 5604 5604 5604 5604 5605 5606 5607 5610 5613 5616 5620 5621 5624 5625 5628 5632 5632 5645 5660 5667 5675 5679 5680 5688 5693 5697 5702 5706 5713 5717 5720 5725 5730 5734 5736 5740 5743 5746 5750 5754 5757 5760 5762 5764 5768 5773 5778 5783 5785 5790 5792 5793 5796 5797 5798 5799 5802 5803 5806 5811 5813 5815 5817 5815 5819 5822 5824 5826 5826 5827 5829 5829 5831 5831
5653 5649 5644 5639 5634 5629 5623 5617 5611 5605 5600 5596 5593 5591 5591 5591 5591 5592 5594 5595 5597 5600 5602 5607 5610 5613 5614 5615 5620 5620 5625 5646 5657 5659 5666 5669 5672 5680 5683 5690 5694 5698 5705 5709 5713 5718 5722 5726 5730 5734 5737 5741 5745 5749 5752 5754 5755 5758 5763 5768 5773 5777 5780 5785 5788 5789 5792 5793 5794 5796 5797 5799 5803 5808 5809 5811 5813 5811 5816 5819 5821 5823 5823 5825 5827 5827 5829 5829
5646 5641 5636 5630 5625 5618 5611 5605 5598 5592 5587 5583 5580 5579 5578 5578 5579 5580 5582 5584 5587 5589 5593 5596 5600 5604 5605 5608 5610 5609 5625 5645 5647 5649 5655 5658 5664 5670 5674 5680 5684 5690 5697 5701 5706 5709 5713 5719 5724 5728 5731 5736 5739 5742 5746 5747 5749 5754 5759 5763 5767 5771 5775 5780 5782 5783 5786 5788 5791 5792 5794 5796 5799 5803 5804 5807 5809 5808 5812 5816 5818 5820 5821 5822 5824 5825 5827 5827
5639 5633 5628 5622 5615 5607 5599 5592 5585 5579 5575 5571 5569 5568 5567 5568 5568 5569 5570 5573 5575 5578 5582 5585 5590 5594 5596 5600 5598 5604 5626 5637 5636 5641 5644 5646 5653 5661 5666 5671 5676 5683 5688 5694 5698 5702 5708 5713 5717 5720 5723 5727 5730 5734 5737 5739 5745 5751 5753 5757 5761 5765 5769 5774 5776 5777 5780 5783 5786 5788 5790 5792 5795 5797 5799 5803 5806 5805 5808 5812 5814 5816 5818 5820 5821 5823 5824 5825
5631 5626 5619 5613 5605 5596 5588 5580 5573 5568 5565 5562 5560 5560 5559 5559 5560 5560 5562 5564 5566 5568 5571 5575 5581 5584 5587 5589 5588 5604 5625 5626 5628 5632 5630 5636 5644 5651 5658 5663 5669 5674 5679 5686 5691 5696 5701 5704 5707 5710 5713 5718 5723 5727 5730 5735 5742 5744 5747 5751 5754 5758 5762 5766 5769 5771 5774 5777 5781 5783 5785 5788 5789 5790 5794 5799 5802 5802 5803 5808 5811 5812 5815 5816 5818 5820 5821 5823
5624 5618 5611 5603 5594 5585 5576 5569 5563 5559 5557 5556 5555 5555 5554 5554 5554 5555 5556 5557 5559 5560 5562 5566 5570 5574 5577 5577 5585 5606 5617 5616 5618 5619 5622 5630 5634 5640 5649 5655 5660 5664 5670 5677 5683 5689 5693 5696 5698 5702 5707 5713 5718 5721 5724 5732 5735 5737 5741 5744 5747 5751 5754 5759 5763 5766 5769 5772 5776 5778 5777 5781 5784 5785 5790 5796 5799 5798 5800 5804 5807 5809 5811 5813 5815 5816 5818 5820
5617 5610 5602 5594 5584 5575 5567 5560 5556 5554 5553 5552 5551 5551 5551 5551 5552 5552 5552 5553 5554 5554 5555 5557 5559 5565 5565 5569 5587 5600 5603 5606 5606 5607 5616 5621 5624 5632 5640 5646 5652 5656 5662 5669 5675 5682 5686 5689 5692 5697 5703 5707 5711 5714 5720 5726 5726 5731 5736 5737 5741 5742 5746 5755 5759 5760 5763 5766 5771 5771 5769 5775 5780 5782 5787 5792 5795 5795 5796 5800 5804 5805 5807 5809 5811 5813 5815 5817
5611 5602 5594 5585 5575 5567 5560 5555 5552 5551 5550 5550 5550 5550 5549 5550 5550 5550 5550 5550 5550 5550 5551 5551 5553 5556 5555 5566 5583 5586 5590 5594 5593 5601 5611 5613 5617 5625 5631 5638 5644 5649 5655 5661 5668 5675 5680 5683 5687 5692 5696 5700 5705 5709 5716 5718 5719 5726 5729 5731 5734 5735 5743 5753 5755 5755 5757 5761 5765 5765 5763 5770 5777 5778 5783 5787 5790 5791 5791 5796 5799 5801 5803 5805 5807 5809 5811 5813
5604 5595 5587 5577 5569 5561 5556 5552 5550 5550 5549 5549 5549 5549 5548 5548 5548 5548 5548 5547 5547 5548 5549 5548 5549 5550 5552 5563 5574 5575 5579 5582 5587 5599 5605 5606 5612 5618 5624 5631 5637 5644 5649 5653 5660 5667 5672 5676 5681 5686 5690 5694 5698 5702 5706 5708 5714 5720 5720 5723 5728 5732 5740 5747 5749 5750 5752 5756 5760 5759 5757 5765 5772 5774 5778 5781 5784 5785 5785 5790 5794 5796 5798 5801 5803 5805 5808 5810
5598 5589 5580 5572 5564 5558 5554 5551 5550 5550 5549 5549 5548 5548 5547 5547 5547 5546 5546 5545 5544 5546 5546 5545 5546 5546 5549 5559 5565 5568 5571 5576 5586 5594 5595 5599 5607 5613 5619 5624 5631 5638 5642 5646 5652 5657 5663 5668 5674 5679 5683 5685 5688 5693 5698 5700 5707 5711 5713 5719 5725 5729 5735 5740 5744 5746 5749 5752 5753 5753 5752 5758 5767 5771 5773 5775 5779 5780 5780 5784 5789 5792 5795 5797 5800 5802 5804 5806
5593 5584 5576 5568 5561 5555 5552 5551 5550 5549 5549 5549 5548 5547 5546 5546 5545 5544 5544 5543 5542 5543 5544 5544 5544 5543 5546 5553 5559 5562 5565 5572 5580 5584 5588 5594 5600 5608 5613 5618 5625 5630 5635 5641 5644 5648 5654 5659 5666 5671 5675 5677 5681 5686 5688 5690 5697 5703 5709 5715 5720 5725 5729 5735 5740 5742 5745 5746 5746 5748 5747 5750 5759 5764 5767 5770 5773 5774 5775 5778 5784 5788 5791 5793 5796 5798 5800 5802
5588 5580 5572 5565 5559 5554 5552 5551 5550 5549 5549 5548 5547 5546 5545 5544 5544 5543 5542 5541 5541 5541 5541 5542 5542 5541 5545 5550 5555 5558 5561 5567 5572 5577 5583 5588 5593 5601 5606 5612 5618 5623 5630 5635 5638 5642 5645 5651 5657 5661 5665 5669 5673 5676 5678 5686 5697 5703 5707 5711 5716 5720 5723 5729 5735 5738 5741 5740 5740 5741 5741 5744 5751 5757 5762 5765 5767 5768 5769 5773 5779 5783 5787 5789 5792 5795 5796 5798
5584 5577 5570 5563 5558 5554 5552 5551 5550 5549 5549 5547 5546 5545 5544 5544 5543 5541 5540 5539 5539 5539 5539 5540 5541 5541 5544 5547 5551 5554 5557 5562 5568 5573 5579 5583 5589 5595 5599 5606 5612 5617 5623 5627 5632 5634 5637 5643 5646 5649 5656 5663 5670 5674 5680 5692 5699 5702 5706 5710 5714 5716 5718 5724 5728 5732 5735 5733 5732 5734 5735 5739 5744 5750 5756 5759 5762 5764 5764 5769 5775 5779 5782 5785 5787 5790 5792 5794
5581 5575 5568 5563 5558 5555 5553 5552 5550 5549 5548 5547 5546 5544 5543 5542 5541 5539 5538 5538 5537 5537 5537 5538 5539 5540 5542 5543 5546 5550 5553 5557 5563 5569 5576 5582 5587 5590 5594 5600 5606 5610 5615 5621 5626 5629 5631 5633 5635 5643 5655 5665 5673 5678 5684 5691 5693 5697 5702 5703 5706 5709 5712 5717 5720 5724 5728 5728 5727 5731 5733 5734 5738 5744 5750 5753 5757 5759 5759 5763 5770 5775 5778 5780 5782 5785 5788 5790
5579 5573 5567 5562 5558 5555 5554 5552 5550 5549 5548 5547 5545 5544 5542 5541 5539 5538 5537 5537 5536 5535 5536 5536 5537 5538 5540 5541 5543 5546 5549 5554 5560 5565 5572 5580 5584 5586 5589 5595 5600 5603 5609 5617 5622 5624 5623 5623 5629 5643 5656 5665 5671 5675 5680 5682 5685 5690 5693 5693 5697 5701 5705 5710 5713 5716 5721 5722 5722 5727 5729 5729 5732 5737 5743 5747 5749 5753 5755 5758 5765 5771 5774 5776 5778 5780 5783 5786
5577 5572 5566 5561 5557 5555 5554 5552 5550 5549 5548 5547 5545 5543 5542 5540 5538 5537 5536 5537 5535 5535 5535 5534 5535 5537 5538 5539 5541 5544 5547 5551 5556 5560 5567 5575 5578 5581 5586 5591 5595 5600 5608 5614 5616 5617 5616 5618 5630 5645 5653 5658 5663 5667 5671 5674 5679 5683 5684 5686 5690 5694 5700 5703 5706 5709 5711 5713 5717 5721 5722 5723 5726 5729 5735 5740 5743 5747 5751 5755 5760 5765 5769 5771 5772 5774 5777 5781
5576 5570 5565 5561 5557 5555 5553 5552 5550 5549 5548 5546 5545 5543 5542 5540 5538 5536 5535 5535 5536 5534 5533 5533 5534 5535 5536 5537 5539 5541 5544 5549 5554 5557 5562 5567 5571 5576 5581 5585 5591 5598 5604 5608 5611 5612 5613 5620 5633 5642 5645 5649 5654 5659 5663 5666 5670 5674 5676 5679 5683 5689 5693 5695 5699 5702 5703 5706 5711 5714 5715 5717 5719 5722 5726 5733 5739 5742 5746 5751 5755 5758 5762 5765 5767 5769 5770 5774
5575 5570 5565 5561 5558 5555 5553 5552 5550 5549 5548 5546 5545 5543 5542 5540 5538 5536 5534 5534 5535 5535 5533 5532 5533 5534 5535 5535 5536 5539 5542 5546 5551 5555 5559 5563 5568 5573 5577 5582 5587 5592 5597 5603 5609 5609 5611 5621 5629 5632 5635 5641 5646 5651 5654 5657 5661 5666 5670 5673 5678 5683 5685 5689 5694 5695 5697 5699 5702 5707 5708 5708 5711 5716 5720 5728 5733 5736 5739 5745 5749 5751 5755 5759 5761 5764 5766 5769
5574 5569 5565 5561 5558 5556 5554 5552 5551 5549 5548 5547 5545 5543 5542 5540 5538 5536 5534 5533 5534 5534 5533 5532 5533 5534 5534 5534 5536 5539 5540 5545 5551 5554 5556 5561 5566 5569 5573 5578 5581 5586 5593 5600 5604 5604 5609 5617 5621 5622 5628 5634 5637 5640 5645 5651 5656 5660 5663 5668 5674 5677 5679 5683 5686 5687 5689 5690 5693 5698 5698 5699 5706 5711 5714 5720 5724 5728 5734 5739 5744 5747 5750 5754 5756 5759 5762 5765
5574 5569 5565 5561 5559 5556 5554 5553 5551 5550 5548 5547 5545 5543 5541 5539 5537 5535 5533 5532 5533 5533 5533 5532 5533 5533 5534 5534 5536 5537 5539 5545 5550 5552 5555 5559 5562 5566 5570 5573 5577 5583 5590 5596 5597 5598 5605 5612 5615 5617 5622 5626 5628 5632 5640 5647 5650 5652 5658 5666 5670 5671 5674 5676 5679 5680 5681 5682 5687 5690 5688 5692 5699 5701 5706 5713 5717 5723 5728 5732 5738 5743 5745 5749 5751 5753 5757 5760
5573 5569 5565 5562 5559 5557 5555 5553 5551 5550 5548 5547 5545 5543 5541 5538 5536 5534 5532 5531 5531 5532 5531 5531 5532 5532 5532 5533 5534 5536 5539 5544 5548 5550 5554 5557 5559 5562 5566 5569 5575 5580 5586 5590 5588 5593 5603 5609 5610 5614 5618 5620 5621 5626 5635 5641 5642 5646 5657 5662 5661 5664 5668 5671 5673 5673 5673 5677 5679 5679 5681 5684 5687 5692 5701 5707 5711 5717 5721 5725 5731 5737 5740 5742 5744 5746 5750 5754
5573 5569 5565 5562 5559 5557 5555 5554 5552 5550 5548 5546 5544 5542 5540 5538 5536 5534 5531 5530 5530 5530 5529 5529 5530 5530 5530 5531 5533 5534 5535 5540 5545 5547 5550 5554 5555 5559 5562 5567 5573 5576 5581 5582 5582 5592 5603 5605 5606 5610 5613 5614 5617 5624 5632 5635 5636 5644 5653 5651 5653 5659 5663 5665 5664 5663 5667 5668 5666 5670 5676 5676 5677 5688 5698 5700 5704 5710 5714 5719 5725 5731 5735 5736 5738 5741 5745 5749
5573 5569 5565 5562 5559 5556 5555 5554 5552 5550 5548 5546 5544 5542 5539 5537 5535 5533 5531 5530 5529 5528 5528 5529 5529 5529 5529 5530 5531 5531 5533 5536 5541 5544 5547 5550 5553 5557 5561 5566 5569 5571 5575 5576 5580 5590 5596 5597 5601 5604 5606 5610 5616 5621 5626 5628 5631 5640 5643 5641 5648 5652 5653 5656 5654 5656 5660 5655 5655 5665 5670 5668 5669 5681 5690 5692 5697 5704 5709 5714 5719 5725 5730 5731 5733 5736 5741 5745
5572 5569 5566 5562 5559 5556 5554 5552 5551 5549 5547 5545 5543 5541 5539 5536 5534 5532 5530 5529 5528 5528 5528 5528 5528 5529 5529 5530 5531 5531 5532 5534 5537 5541 5544 5547 5551 5555 5559 5562 5565 5567 5570 5572 5576 5583 5588 5592 5595 5598 5602 5609 5613 5617 5621 5623 5628 5633 5632 5634 5643 5643 5643 5647 5647 5652 5650 5642 5648 5659 5664 5665 5663 5670 5683 5687 5693 5701 5704 5707 5713 5720 5723 5725 5728 5730 5736 5740
5573 5569 5566 5562 5559 5557 5554 5551 5550 5548 5547 5545 5542 5540 5538 5536 5534 5532 5530 5528 5528 5527 5527 5527 5527 5527 5528 5529 5531 5531 5532 5533 5536 5539 5541 5544 5549 5551 5555 5559 5562 5564 5566 5568 5572 5579 5583 5585 5588 5593 5600 5605 5609 5613 5617 5619 5622 5624 5623 5630 5636 5634 5636 5638 5640 5644 5637 5632 5645 5656 5662 5660 5652 5661 5679 5685 5689 5694 5697 5701 5707 5712 5716 5719 5722 5725 5730 5734
5572 5569 5565 5562 5559 5556 5553 5551 5549 5548 5546 5544 5542 5539 5537 5535 5533 5531 5529 5528 5527 5527 5526 5526 5526 5526 5526 5526 5528 5530 5531 5533 5535 5537 5539 5542 5545 5547 5550 5554 5559 5562 5563 5567 5573 5576 5578 5580 5587 5592 5596 5600 5603 5607 5611 5614 5617 5618 5618 5624 5626 5625 5629 5628 5629 5633 5629 5630 5645 5653 5654 5648 5644 5658 5673 5678 5683 5688 5691 5695 5699 5704 5710 5713 5715 5719 5723 5727
5572 5568 5565 5562 5559 5556 5553 5551 5549 5547 5545 5543 5541 5539 5537 5534 5531 5530 5529 5527 5527 5526 5526 5526 5525 5526 5526 5525 5526 5527 5528 5530 5533 5536 5538 5540 5542 5545 5547 5550 5554 5556 5559 5566 5570 5571 5573 5577 5582 5585 5588 5593 5596 5600 5605 5608 5612 5612 5613 5617 5617 5617 5620 5619 5622 5626 5625 5632 5644 5647 5643 5636 5642 5656 5664 5673 5682 5683 5683 5687 5692 5698 5703 5706 5709 5712 5715 5719
5572 5568 5565 5561 5558 5555 5553 5550 5548 5546 5544 5542 5540 5539 5536 5534 5531 5529 5527 5527 5526 5525 5525 5525 5525 5525 5525 5526 5526 5525 5526 5528 5530 5532 5534 5536 5539 5541 5544 5548 5550 5552 5557 5561 5563 5566 5568 5571 5576 5580 5585 5591 5594 5598 5602 5606 5608 5607 5610 5613 5611 5612 5614 5615 5620 5621 5623 5633 5640 5639 5630 5626 5640 5656 5663 5670 5673 5672 5677 5683 5686 5690 5693 5698 5703 5706 5708 5712
5572 5568 5565 5561 5558 5555 5552 5550 5547 5545 5544 5542 5540 5538 5536 5534 5531 5529 5527 5526 5525 5524 5524 5524 5524 5524 5525 5526 5526 5526 5527 5527 5528 5529 5530 5533 5535 5537 5541 5545 5547 5550 5553 5555 5558 5562 5563 5566 5573 5578 5582 5588 5592 5595 5599 5602 5602 5603 5607 5606 5603 5609 5614 5615 5617 5619 5623 5627 5626 5624 5619 5624 5643 5655 5656 5658 5660 5666 5675 5677 5677 5680 5686 5692 5696 5699 5704 5707
5571 5568 5564 5561 5558 5554 5551 5549 5547 5545 5543 5541 5540 5538 5536 5533 5531 5528 5526 5525 5524 5524 5524 5524 5523 5524 5524 5525 5525 5526 5527 5527 5527 5528 5529 5531 5532 5534 5537 5541 5544 5547 5549 5551 5556 5560 5559 5564 5573 5576 5577 5581 5586 5590 5593 5593 5596 5600 5600 5598 5602 5611 5612 5610 5611 5614 5615 5612 5610 5615 5618 5628 5641 5642 5644 5654 5658 5661 5667 5670 5672 5675 5680 5685 5689 5694 5699 5701
5570 5567 5563 5560 5557 5554 5551 5548 5546 5544 5542 5541 5539 5537 5535 5533 5531 5528 5526 5525 5524 5523 5523 5523 5523 5523 5523 5524 5524 5525 5526 5526 5526 5527 5528 5530 5531 5533 5535 5538 5540 5543 5547 5550 5553 5555 5556 5560 5568 5570 5571 5577 5582 5585 5585 5586 5590 5593 5593 5597 5605 5607 5603 5603 5604 5605 5604 5600 5603 5611 5616 5625 5631 5629 5640 5652 5651 5652 5659 5665 5668 5668 5671 5677 5683 5687 5691 5694
5570 5566 5563 5560 5557 5554 5551 5548 5546 5544 5542 5540 5538 5536 5534 5532 5531 5529 5526 5525 5524 5523 5522 5522 5522 5522 5522 5523 5523 5524 5525 5525 5526 5526 5527 5528 5531 5533 5534 5536 5538 5541 5545 5547 5548 5552 5553 5554 5561 5565 5567 5572 5578 5579 5579 5581 5585 5586 5589 5596 5598 5594 5594 5597 5596 5596 5597 5595 5598 5605 5609 5615 5620 5624 5635 5641 5643 5650 5656 5658 5659 5661 5664 5667 5673 5679 5682 5686
5569 5566 5563 5560 5557 5554 5551 5548 5545 5543 5541 5539 5537 5536 5534 5532 5530 5528 5527 5525 5524 5523 5522 5521 5521 5522 5522 5522 5522 5522 5523 5524 5525 5525 5526 5527 5529 5531 5532 5534 5536 5538 5541 5543 5545 5549 5549 5549 5555 5561 5563 5566 5570 5571 5571 5577 5582 5583 5585 5588 5588 5587 5590 5593 5591 5593 5595 5592 5594 5599 5599 5603 5613 5624 5629 5632 5641 5648 5648 5648 5651 5656 5657 5658 5663 5669 5674 5678
5569 5566 5563 5560 5557 5553 5550 5548 5545 5543 5540 5538 5536 5535 5534 5532 5530 5528 5527 5526 5524 5523 5522 5521 5521 5520 5521 5521 5521 5521 5521 5523 5524 5524 5525 5526 5527 5528 5529 5530 5532 5533 5535 5537 5539 5542 5544 5544 5547 5555 5558 5558 5560 5563 5566 5572 5576 5578 5579 5581 5583 5584 5587 5588 5587 5589 5591 5588 5589 5591 5589 5595 5612 5623 5624 5628 5637 5640 5637 5638 5641 5646 5651 5652 5654 5659 5664 5670
5568 5565 5562 5559 5556 5553 5550 5547 5545 5543 5540 5538 5536 5534 5533 5532 5530 5528 5527 5526 5524 5523 5522 5521 5520 5519 5520 5520 5520 5520 5520 5521 5522 5523 5524 5525 5526 5527 5528 5528 5529 5530 5531 5533 5535 5537 5539 5538 5541 5548 5550 5550 5555 5561 5565 5566 5569 5572 5575 5576 5578 5581 5584 5583 5580 5582 5586 5584 5585 5586 5583 5591 5609 5617 5617 5620 5626 5627 5627 5630 5633 5637 5642 5646 5648 5650 5655 5661
5566 5564 5561 5558 5555 5552 5550 5547 5544 5542 5540 5538 5536 5534 5532 5531 5529 5528 5526 5525 5524 5523 5522 5521 5519 5519 5518 5518 5518 5518 5518 5519 5520 5521 5522 5523 5524 5525 5525 5525 5527 5528 5528 5530 5531 5533 5533 5533 5535 5539 5543 5547 5554 5559 5559 5559 5563 5569 5570 5571 5574 5575 5576 5575 5573 5579 5583 5579 5582 5583 5577 5583 5601 5609 5609 5610 5614 5618 5621 5624 5628 5630 5632 5637 5640 5642 5646 5650
5565 5562 5560 5557 5555 5552 5549 5546 5544 5541 5539 5537 5535 5532 5531 5530 5528 5527 5526 5525 5523 5522 5521 5520 5519 5518 5517 5517 5517 5517 5516 5516 5517 5519 5520 5521 5523 5523 5523 5524 5525 5526 5526 5527 5528 5528 5528 5529 5530 5533 5537 5543 5548 5550 5549 5551 5556 5558 5558 5562 5566 5567 5569 5571 5571 5577 5577 5572 5577 5577 5568 5576 5594 5602 5602 5602 5607 5613 5615 5617 5621 5622 5624 5626 5630 5634 5638 5641
5563 5561 5558 5556 5554 5551 5548 5546 5543 5541 5539 5537 5535 5532 5530 5528 5526 5526 5525 5523 5522 5522 5520 5519 5518 5517 5517 5516 5515 5516 5515 5514 5515 5517 5518 5519 5521 5522 5522 5522 5522 5523 5523 5523 5523 5523 5524 5525 5525 5527 5530 5534 5538 5540 5542 5545 5548 5548 5550 5555 5557 5560 5564 5565 5567 5570 5565 5563 5571 5569 5563 5574 5589 5595 5597 5597 5600 5606 5607 5609 5612 5614 5615 5617 5620 5624 5628 5632
5562 5559 5557 5555 5552 5550 5547 5544 5542 5540 5538 5536 5534 5531 5529 5527 5525 5524 5523 5522 5521 5520 5519 5518 5517 5516 5516 5515 5514 5514 5514 5513 5513 5514 5516 5518 5519 5519 5519 5519 5518 5519 5520 5520 5519 5519 5520 5521 5522 5523 5524 5526 5529 5533 5536 5539 5540 5540 5545 5549 5550 5553 5556 5556 5559 5558 5554 5557 5565 5562 5560 5572 5583 5587 5591 5592 5594 5598 5599 5601 5605 5607 5607 5609 5611 5613 5616 5621
5560 5557 5555 5553 5551 5549 5546 5544 5541 5538 5536 5535 5533 5531 5528 5526 5524 5523 5522 5520 5519 5518 5518 5517 5516 5515 5514 5513 5513 5513 5512 5511 5510 5511 5513 5515 5515 5514 5514 5513 5514 5515 5516 5516 5516 5515 5515 5517 5518 5518 5518 5520 5523 5526 5529 5531 5530 5532 5538 5540 5542 5545 5547 5547 5547 5545 5548 5554 5555 5554 5560 5568 5573 5579 5584 5585 5588 5591 5592 5594 5598 5599 5600 5602 5603 5605 5607 5611
5559 5556 5553 5550 5549 5547 5545 5543 5540 5537 5535 5533 5532 5530 5528 5526 5523 5522 5521 5519 5518 5517 5516 5516 5514 5513 5512 5512 5511 5511 5510 5510 5509 5509 5510 5510 5510 5510 5509 5509 5511 5511 5511 5511 5511 5511 5511 5512 5514 5514 5514 5516 5518 5520 5523 5522 5522 5526 5531 5533 5535 5537 5538 5538 5536 5538 5546 5546 5542 5550 5559 5559 5563 5573 5577 5577 5580 5584 5586 5588 5589 5590 5591 5593 5596 5598 5601 5604
5557 5555 5552 5549 5547 5545 5543 5541 5539 5537 5534 5532 5530 5528 5526 5524 5521 5520 5519 5518 5517 5515 5514 5514 5513 5511 5510 5509 5509 5509 5508 5508 5507 5507 5506 5506 5506 5506 5505 5507 5508 5508 5507 5506 5507 5508 5507 5508 5512 5511 5510 5512 5513 5514 5517 5516 5516 5519 5522 5524 5527 5529 5530 5530 5530 5535 5540 5535 5535 5546 5551 5548 5554 5564 5567 5569 5573 5576 5578 5579 5579 5580 5582 5585 5588 5591 5595 5597
5554 5552 5551 5548 5545 5543 5541 5539 5537 5535 5532 5530 5528 5526 5524 5522 5520 5518 5517 5516 5516 5514 5512 5511 5511 5508 5507 5507 5506 5505 5505 5504 5504 5505 5504 5503 5502 5501 5502 5504 5505 5504 5503 5502 5505 5505 5502 5504 5510 5507 5504 5507 5508 5509 5511 5511 5510 5512 5514 5517 5520 5521 5522 5523 5524 5528 5530 5527 5530 5539 5540 5539 5547 5555 5561 5565 5567 5568 5571 5571 5571 5574 5578 5580 5581 5582 5585 5590
5551 5549 5548 5546 5543 5541 5539 5537 5535 5533 5530 5528 5527 5524 5522 5520 5518 5517 5515 5513 5513 5512 5510 5509 5508 5506 5505 5504 5503 5503 5502 5500 5500 5501 5501 5500 5499 5499 5498 5498 5500 5500 5499 5500 5502 5501 5498 5501 5505 5502 5498 5500 5504 5506 5506 5506 5506 5505 5507 5510 5512 5513 5514 5515 5517 5521 5522 5521 5525 5530 5529 5532 5542 5551 5557 5561 5562 5561 5563 5565 5567 5570 5573 5575 5573 5572 5574 5580
5549 5547 5545 5544 5541 5538 5537 5535 5533 5531 5529 5526 5525 5523 5521 5518 5516 5514 5513 5512 5510 5509 5507 5506 5505 5504 5503 5502 5501 5500 5498 5496 5496 5498 5498 5496 5496 5496 5495 5494 5495 5495 5495 5496 5496 5495 5494 5496 5499 5496 5491 5494 5501 5502 5501 5502 5500 5497 5498 5502 5506 5507 5508 5510 5512 5516 5517 5518 5520 5521 5520 5525 5540 5549 5550 5553 5556 5555 5556 5560 5563 5564 5565 5566 5566 5567 5567 5570
5545 5544 5542 5541 5539 5536 5534 5532 5531 5529 5527 5524 5522 5520 5518 5517 5514 5511 5511 5510 5508 5505 5504 5502 5501 5500 5500 5499 5498 5495 5493 5493 5493 5494 5493 5492 5492 5492 5491 5490 5490 5489 5490 5491 5491 5491 5491 5490 5493 5491 5486 5489 5497 5498 5497 5496 5489 5485 5492 5500 5502 5503 5503 5504 5506 5509 5513 5514 5513 5512 5515 5524 5535 5541 5540 5543 5546 5547 5549 5552 5554 5555 5556 5558 5560 5563 5563 5563